Location: Peebles
(55.6412°N, 3.1714°W)
Time: 13:55:56
(UTC+01:00)

USA 215 - Pass Details

Date: 26 September 2021
Orbit: 1093 x 1114 km, 123.0° (Epoch: 14 October)

Event Time Altitude Azimuth Distance (km) Brightness Sun altitude
Exits shadow 19:24:15 - 112° (ESE) 3,610 5.4 -4.2°
Reaches altitude 10° 19:25:57 10° 113° (ESE) 2,954 4.9 -4.4°
Maximum altitude 19:32:30 81° 201° (SSW) 1,120 3.4 -5.3°
Drops below altitude 10° 19:39:06 10° 289° (WNW) 2,974 7.2 -6.2°
Sets 19:41:36 0° 291° (WNW) 3,937 8.1 -6.6°
